| time (UTC) | temp F | wind direction | speed knots | gust knots | rain 1hr in | rain 24hr in | rain mn in | humidity % | barometer mb |
| 20260504081552 | 38 | 0 | 0.0 | 0.0 | 0.00 | 0.00 | 0.00 | 81 | 1013.0 |
| 20260504044559 | 44 | 0 | 0.0 | 1.7 | 0.00 | 0.00 | 0.00 | 71 | 1012.3 |
| 20260504043045 | 43 | 0 | 0.0 | 2.6 | 0.00 | 0.00 | 0.00 | 69 | 1012.2 |
| 20260504041553 | 44 | 172 | 0.0 | 0.9 | 0.00 | 0.00 | 0.00 | 68 | 1012.0 |
| 20260504040105 | 44 | 0 | 0.0 | 1.7 | 0.00 | 0.00 | 0.00 | 67 | 1012.1 |
| 20260504034612 | 45 | 172 | 0.0 | 1.7 | 0.00 | 0.00 | 0.00 | 65 | 1012.0 |
| 20260504033045 | 46 | 0 | 0.0 | 1.7 | 0.00 | 0.00 | 0.00 | 63 | 1012.0 |
| 20260504031550 | 47 | 0 | 0.0 | 1.7 | 0.00 | 0.00 | 0.00 | 61 | 1012.0 |
| 20260504030118 | 47 | 173 | 0.0 | 1.7 | 0.00 | 0.00 | 0.00 | 59 | 1011.9 |
| 20260504024555 | 48 | 0 | 0.0 | 1.7 | 0.00 | 0.00 | 0.00 | 57 | 1012.0 |
| 20260504023046 | 49 | 297 | 0.0 | 1.7 | 0.00 | 0.00 | 0.00 | 54 | 1012.0 |
| 20260504021554 | 50 | 0 | 0.0 | 3.5 | 0.00 | 0.00 | 0.00 | 48 | 1011.9 |
| 20260504020105 | 50 | 0 | 0.0 | 1.7 | 0.00 | 0.00 | 0.00 | 48 | 1011.9 |
| 20260504014556 | 51 | 0 | 0.0 | 1.7 | 0.00 | 0.00 | 0.00 | 46 | 1011.9 |
| 20260504013056 | 51 | 257 | 0.0 | 1.7 | 0.00 | 0.00 | 0.00 | 47 | 1011.7 |
| 20260504011548 | 51 | 0 | 0.0 | 1.7 | 0.00 | 0.00 | 0.00 | 48 | 1011.5 |
| 20260504010049 | 52 | 223 | 0.0 | 1.7 | 0.00 | 0.00 | 0.00 | 46 | 1011.4 |
| 20260504004545 | 53 | 0 | 0.0 | 1.7 | 0.00 | 0.00 | 0.00 | 43 | 1011.4 |
| 20260504003048 | 54 | 0 | 0.0 | 0.0 | 0.00 | 0.00 | 0.00 | 41 | 1011.4 |
| 20260504001603 | 55 | 0 | 0.0 | 1.7 | 0.00 | 0.00 | 0.00 | 39 | 1011.1 |
| 20260504000057 | 56 | 0 | 0.0 | 1.7 | 0.00 | 0.00 | 0.00 | 37 | 1011.0 |
| 20260503234546 | 57 | 0 | 0.0 | 1.7 | 0.00 | 0.00 | 0.00 | 37 | 1010.9 |
| 20260503233045 | 57 | 0 | 0.0 | 1.7 | 0.00 | 0.00 | 0.00 | 36 | 1010.7 |
| 20260503231551 | 58 | 5 | 0.0 | 5.2 | 0.00 | 0.00 | 0.00 | 35 | 1010.7 |
| 20260503230053 | 58 | 296 | 1.7 | 6.1 | 0.00 | 0.00 | 0.00 | 34 | 1010.6 |
| 20260503224550 | 58 | 348 | 0.9 | 6.1 | 0.00 | 0.00 | 0.00 | 34 | 1010.7 |
| 20260503223050 | 59 | 13 | 2.6 | 13.9 | 0.00 | 0.00 | 0.00 | 33 | 1010.7 |
| 20260503221550 | 60 | 332 | 1.7 | 6.1 | 0.00 | 0.00 | 0.00 | 33 | 1010.6 |
| 20260503220055 | 59 | 31 | 0.9 | 4.3 | 0.00 | 0.00 | 0.00 | 35 | 1010.7 |
| 20260503214551 | 59 | 331 | 0.9 | 7.8 | 0.00 | 0.00 | 0.00 | 34 | 1010.9 |
| 20260503213052 | 58 | 29 | 2.6 | 8.7 | 0.00 | 0.00 | 0.00 | 33 | 1010.7 |
| 20260503211554 | 59 | 360 | 2.6 | 7.8 | 0.00 | 0.00 | 0.00 | 32 | 1010.6 |
| 20260503210051 | 59 | 24 | 3.5 | 8.7 | 0.00 | 0.00 | 0.00 | 31 | 1010.6 |
| 20260503204556 | 60 | 269 | 1.7 | 4.3 | 0.00 | 0.00 | 0.00 | 33 | 1010.6 |
| 20260503203052 | 59 | 352 | 2.6 | 5.2 | 0.00 | 0.00 | 0.00 | 30 | 1010.4 |
| 20260503201550 | 60 | 360 | 2.6 | 10.4 | 0.00 | 0.00 | 0.00 | 30 | 1010.5 |
| 20260503200056 | 59 | 11 | 2.6 | 7.0 | 0.00 | 0.00 | 0.00 | 30 | 1010.8 |
| 20260503194555 | 60 | 352 | 3.5 | 11.3 | 0.00 | 0.00 | 0.00 | 31 | 1010.8 |
| 20260503193109 | 60 | 5 | 2.6 | 8.7 | 0.00 | 0.00 | 0.00 | 29 | 1011.0 |
| 20260503191550 | 59 | 290 | 2.6 | 7.8 | 0.00 | 0.00 | 0.00 | 31 | 1011.2 |
| 20260503190100 | 57 | 330 | 1.7 | 7.8 | 0.00 | 0.00 | 0.00 | 31 | 1011.4 |
| 20260503184551 | 57 | 5 | 1.7 | 8.7 | 0.00 | 0.00 | 0.00 | 32 | 1011.6 |
| 20260503183100 | 56 | 332 | 3.5 | 10.4 | 0.00 | 0.00 | 0.00 | 33 | 1011.8 |
| 20260503181551 | 56 | 346 | 3.5 | 8.7 | 0.00 | 0.00 | 0.00 | 33 | 1012.0 |
| 20260503180057 | 55 | 47 | 3.5 | 7.8 | 0.00 | 0.00 | 0.00 | 34 | 1012.3 |
| 20260503174549 | 55 | 347 | 3.5 | 11.3 | 0.00 | 0.00 | 0.00 | 36 | 1012.7 |
| 20260503173109 | 53 | 336 | 4.3 | 11.3 | 0.00 | 0.00 | 0.00 | 35 | 1013.0 |
| 20260503171552 | 54 | 20 | 3.5 | 11.3 | 0.00 | 0.00 | 0.00 | 36 | 1013.1 |